Location: Unspecified
(48.6709°N, 0.0000°E)
Time: 02:21:02
(UTC+00:00)

Meteor 1-12 Rocket - Visible Passes

Search period start: 04 April 2026 00:00
Search period end: 14 April 2026 00:00
Orbit: 855 x 924 km, 81.2° (Epoch: 29 March)

Date Brightness Start Highest point End Pass type
(mag) Time Alt. Az. Time Alt. Az. Time Alt. Az.
4 Apr 5.1 20:15:41 25° ESE 20:17:43 32° E 20:22:55 10° NNE visible
4 Apr 5.2 21:58:27 28° SW 22:01:16 47° WNW 22:07:03 10° N visible
5 Apr 4.9 20:14:13 22° SE 20:17:11 36° E 20:22:35 10° NNE visible
5 Apr 5.4 21:56:57 19° SW 22:00:51 42° WNW 22:06:33 10° N visible
6 Apr 4.8 20:12:33 17° SSE 20:16:40 40° E 20:22:13 10° NNE visible
6 Apr 5.7 21:55:17 11° SW 22:00:27 37° WNW 22:06:01 10° N visible
7 Apr 4.6 20:10:37 10° SSE 20:16:08 46° E 20:21:50 10° NNE visible
7 Apr 5.9 21:54:44 10° SW 22:00:04 33° WNW 22:05:29 10° N visible
8 Apr 4.5 20:09:54 10° SSE 20:15:37 52° E 20:21:26 10° NNE visible
8 Apr 6.1 21:54:31 10° SW 21:59:41 30° WNW 22:04:56 10° N visible
9 Apr 4.4 20:09:18 10° S 20:15:08 59° E 20:21:02 10° NNE visible
9 Apr 6.3 21:54:20 10° WSW 21:59:19 27° WNW 22:04:21 10° N visible
10 Apr 4.3 20:08:44 10° S 20:14:38 66° E 20:20:37 10° NNE visible
10 Apr 6.5 21:54:11 10° WSW 21:58:57 24° WNW 22:03:46 10° N visible
11 Apr 4.3 20:08:13 10° S 20:14:09 75° E 20:20:11 10° NNE visible
11 Apr 6.7 21:54:05 10° WSW 21:58:36 22° WNW 22:03:09 10° NNW visible
12 Apr 4.3 20:07:41 10° S 20:13:40 84° E 20:19:43 10° NNE visible
12 Apr 6.8 21:54:02 10° WSW 21:58:15 19° WNW 22:02:31 10° NNW visible
13 Apr 4.4 20:07:13 10° S 20:13:12 87° WNW 20:19:16 10° NNE visible
13 Apr 7.0 21:54:02 10° W 21:57:55 17° WNW 22:01:50 10° NNW visible
